CW1675 Weather Reports


Display with metric or nautical units.
time (UTC)temp
F
wind
direction
speed
MPH
gust
MPH
rain 1hr
in
rain 24hr
in
rain mn
in
humidity
%
barometer
mb
20260904083408 71 232 7.0 16.0 0.00 0.03 0.03 83 1015.6
20260904082909 71 222 8.0 15.0 0.00 0.03 0.03 84 1015.6
20260904081909 71 227 8.0 17.0 0.00 0.03 0.03 83 1015.6
20260904080909 71 245 7.0 20.0 0.00 0.03 0.03 84 1015.7
20260904075911 71 238 6.0 16.0 0.00 0.03 0.03 84 1015.7
20260904074408 71 235 7.0 12.0 0.00 0.03 0.03 85 1015.8
20260904073909 71 217 7.0 12.0 0.00 0.03 0.03 85 1016.1
20260904073408 71 236 7.0 13.0 0.00 0.03 0.03 86 1016.1
20260904072408 70 216 7.0 14.0 0.00 0.03 0.03 86 1016.1
20260904071908 70 225 6.0 15.0 0.00 0.03 0.03 87 1016.1
20260904065409 70 214 7.0 15.0 0.00 0.03 0.03 87 1016.4
20260904064408 70 205 7.0 12.0 0.00 0.03 0.03 87 1016.4
20260904062408 69 191 6.0 12.0 0.00 0.03 0.03 88 1016.5
20260904061908 69 198 6.0 14.0 0.00 0.03 0.03 88 1016.5
20260904060909 69 208 5.0 10.0 0.00 0.03 0.03 88 1016.6
20260904060408 69 229 5.0 15.0 0.00 0.03 0.03 88 1016.6
20260904055911 69 210 6.0 12.0 0.00 0.03 0.03 88 1016.6
20260904053909 69 243 6.0 10.0 0.00 0.03 0.03 88 1017.0
20260904053408 69 230 6.0 9.0 0.00 0.03 0.03 88 1017.0
20260904051908 69 232 6.0 13.0 0.00 0.03 0.03 89 1017.1
20260904050408 69 240 6.0 13.0 0.00 0.03 0.03 89 1017.1
20260904045408 69 201 5.0 10.0 0.00 0.03 0.03 89 1017.2
20260904044409 69 225 6.0 8.0 0.00 0.03 0.03 89 1017.2
20260904042910 69 236 5.0 8.0 0.00 0.03 0.03 89 1017.3
20260904041908 68 209 3.0 9.0 0.00 0.03 0.03 90 1017.4
20260904040908 68 202 4.0 7.0 0.00 0.03 0.03 89 1017.6
20260904040408 69 230 5.0 8.0 0.00 0.03 0.03 89 1017.6
20260904034909 68 215 5.0 8.0 0.00 0.03 0.03 89 1017.7
20260904032408 68 246 5.0 12.0 0.00 0.03 0.03 90 1018.0
20260904031409 68 219 5.0 9.0 0.00 0.03 0.03 90 1018.0
20260904025408 68 235 6.0 13.0 0.00 0.03 0.03 90 1018.3
20260904024409 68 215 5.0 7.0 0.00 0.03 0.03 90 1018.3
20260904023908 68 209 5.0 8.0 0.00 0.03 0.03 90 1018.4
20260904023408 68 210 5.0 10.0 0.00 0.03 0.03 90 1018.4
20260904022909 68 230 6.0 10.0 0.00 0.03 0.03 90 1018.4
20260904022408 68 225 6.0 10.0 0.00 0.03 0.03 91 1018.7
20260904021908 68 209 5.0 9.0 0.00 0.03 0.03 91 1018.7
20260904020908 67 225 5.0 8.0 0.00 0.03 0.03 91 1018.7
20260904020408 67 226 5.0 10.0 0.00 0.03 0.03 91 1018.7
20260904015910 67 199 5.0 7.0 0.00 0.03 0.03 91 1018.7
20260904015408 67 237 6.0 7.0 0.00 0.03 0.03 91 1018.9
20260904014408 68 214 6.0 15.0 0.00 0.03 0.03 90 1018.9
20260904013908 68 229 6.0 12.0 0.00 0.03 0.03 90 1019.1
20260904013408 68 242 6.0 13.0 0.00 0.03 0.03 91 1019.1
20260904012909 68 237 6.0 12.0 0.00 0.03 0.03 91 1019.1
20260904012408 68 197 6.0 14.0 0.00 0.03 0.03 91 1019.2
20260904011407 68 203 7.0 10.0 0.00 0.03 0.03 91 1019.2
20260904010909 68 205 5.0 14.0 0.00 0.03 0.03 92 1019.4
20260904010408 68 205 5.0 14.0 0.00 0.03 0.03 92 1019.4
20260904005909 68 238 5.0 9.0 0.00 0.03 0.03 92 1019.4
20260904005408 67 207 5.0 9.0 0.00 0.03 0.03 92 1019.3
20260904004908 67 219 6.0 10.0 0.00 0.03 0.03 92 1019.3
20260904004408 67 231 6.0 12.0 0.02 0.03 0.03 92 1019.3
20260904002910 68 249 7.0 10.0 0.02 0.03 0.03 93 1019.5
20260904001408 68 218 5.0 13.0 0.03 0.03 0.03 93 1019.6
20260904000908 68 195 5.0 13.0 0.03 0.03 0.03 92 1019.8
20260903235909 68 222 3.0 8.0 0.03 0.03 0.03 92 1019.8
20260903235408 68 230 3.0 13.0 0.03 0.03 0.03 91 1020.0
20260903234908 68 232 3.0 10.0 0.03 0.03 0.03 91 1020.0
20260903234408 68 244 2.0 9.0 0.01 0.01 0.01 90 1020.0
20260903233408 69 323 2.0 5.0 0.01 0.01 0.01 90 1019.9
20260903232910 69 290 4.0 5.0 0.01 0.01 0.01 89 1019.9
20260903230908 69 233 6.0 12.0 0.00 0.00 0.00 87 1019.8
20260903230408 69 236 7.0 13.0 0.00 0.00 0.00 86 1019.8
20260903224908 70 232 6.0 10.0 0.00 0.00 0.00 85 1019.9
20260903223908 69 209 5.0 8.0 0.00 0.00 0.00 85 1020.0
20260903223408 69 205 5.0 14.0 0.00 0.00 0.00 85 1020.0
20260903222408 69 242 6.0 8.0 0.00 0.00 0.00 86 1020.3
20260903221908 69 220 6.0 12.0 0.00 0.00 0.00 86 1020.3
20260903220909 69 203 5.0 12.0 0.00 0.00 0.00 86 1020.3
20260903215925 69 213 5.0 10.0 0.00 0.00 0.00 86 1020.3
20260903214908 69 180 5.0 9.0 0.00 0.00 0.00 86 1020.5
20260903213908 69 189 5.0 7.0 0.00 0.00 0.00 86 1020.5
20260903212408 69 225 5.0 8.0 0.00 0.00 0.00 86 1020.6
20260903211908 69 239 5.0 8.0 0.00 0.00 0.00 86 1020.6
20260903211408 69 226 6.0 6.0 0.00 0.00 0.00 86 1020.6
20260903210908 69 254 6.0 13.0 0.00 0.00 0.00 86 1020.6
20260903210407 69 215 7.0 10.0 0.00 0.00 0.00 85 1020.6
20260903205910 69 239 7.0 12.0 0.00 0.00 0.00 86 1020.6
20260903204909 69 212 5.0 14.0 0.00 0.00 0.00 86 1020.7
20260903204409 69 227 5.0 13.0 0.00 0.00 0.00 87 1020.7
20260903203908 69 217 6.0 10.0 0.00 0.00 0.00 87 1020.7
20260903202410 69 230 5.0 9.0 0.00 0.00 0.00 87 1020.5
20260903194908 69 207 4.0 9.0 0.00 0.00 0.00 88 1020.7
20260903193909 69 194 5.0 9.0 0.00 0.00 0.00 87 1020.7
20260903193408 69 199 5.0 8.0 0.00 0.00 0.00 87 1020.7
20260903192410 69 222 6.0 10.0 0.00 0.00 0.00 87 1020.6
20260903191908 69 229 5.0 10.0 0.00 0.00 0.00 87 1020.6
20260903191408 69 215 5.0 8.0 0.00 0.00 0.00 86 1020.6
20260903190408 69 190 5.0 8.0 0.00 0.00 0.00 86 1020.8
20260903185908 69 233 5.0 7.0 0.00 0.00 0.00 86 1020.8
20260903181911 69 213 6.0 13.0 0.00 0.00 0.00 84 1020.7
20260903180908 69 232 6.0 12.0 0.00 0.00 0.00 84 1020.8
20260903173409 70 220 5.0 10.0 0.00 0.00 0.00 81 1020.9
20260903172910 70 241 7.0 10.0 0.00 0.00 0.00 81 1020.9
20260903170909 71 224 6.0 13.0 0.00 0.00 0.00 79 1020.5
20260903164908 71 229 6.0 18.0 0.00 0.00 0.00 79 1020.6
20260903162909 70 228 4.0 15.0 0.00 0.00 0.00 80 1020.7
20260903161908 70 271 4.0 7.0 0.00 0.00 0.00 80 1020.6
20260903160408 70 213 5.0 8.0 0.00 0.00 0.00 80 1020.7
20260903155408 70 205 6.0 9.0 0.00 0.00 0.00 80 1020.7
20260903153909 70 240 6.0 14.0 0.00 0.00 0.00 79 1020.8
20260903151908 70 214 7.0 15.0 0.00 0.00 0.00 80 1020.9
20260903150407 70 247 6.0 15.0 0.00 0.00 0.00 81 1021.0
20260903145408 69 224 7.0 10.0 0.00 0.00 0.00 81 1021.2
20260903140907 69 268 6.0 12.0 0.00 0.00 0.00 81 1021.0
20260903140407 69 237 7.0 13.0 0.00 0.00 0.00 81 1021.0
20260903135909 70 236 7.0 23.0 0.00 0.00 0.00 80 1021.0
20260903132909 70 242 7.0 10.0 0.00 0.00 0.00 79 1021.0
20260903131408 70 228 6.0 13.0 0.00 0.00 0.00 81 1020.9
20260903130408 69 267 7.0 12.0 0.00 0.00 0.00 80 1020.9
20260903125909 69 206 6.0 13.0 0.00 0.00 0.00 79 1020.9
20260903125408 69 225 6.0 13.0 0.00 0.00 0.00 79 1020.8
20260903124907 69 207 7.0 13.0 0.00 0.00 0.00 79 1020.8
20260903123908 69 264 7.0 15.0 0.00 0.00 0.00 80 1020.9
20260903123407 69 211 7.0 17.0 0.00 0.00 0.00 79 1020.9
20260903122910 69 243 6.0 12.0 0.00 0.00 0.00 80 1020.9
20260903121908 69 232 7.0 12.0 0.00 0.00 0.00 80 1021.0
20260903121408 69 260 7.0 10.0 0.00 0.00 0.00 80 1021.0
20260903115909 68 202 7.0 15.0 0.00 0.00 0.00 79 1020.9
20260903115409 69 214 7.0 14.0 0.00 0.00 0.00 78 1020.9
20260903113407 70 239 7.0 15.0 0.00 0.00 0.00 74 1020.8
20260903112909 70 245 6.0 13.0 0.00 0.00 0.00 75 1020.8
20260903111908 69 239 7.0 12.0 0.00 0.00 0.00 75 1020.9
20260903110908 70 233 6.0 16.0 0.00 0.00 0.00 73 1020.7
20260903105908 70 259 7.0 13.0 0.00 0.00 0.00 74 1020.7
20260903104908 69 236 9.0 14.0 0.00 0.00 0.00 74 1020.5
20260903103908 69 241 7.0 16.0 0.00 0.00 0.00 73 1020.4
20260903103407 69 226 7.0 15.0 0.00 0.00 0.00 73 1020.4
20260903102911 69 231 6.0 18.0 0.00 0.00 0.00 73 1020.4
20260903101908 69 211 6.0 8.0 0.00 0.00 0.00 75 1020.3
20260903101413 68 217 7.0 13.0 0.00 0.00 0.00 75 1020.3
20260903093407 67 226 8.0 15.0 0.00 0.00 0.00 77 1020.5
20260903091907 67 204 7.0 13.0 0.00 0.00 0.00 77 1020.8
20260903091408 67 217 7.0 17.0 0.00 0.00 0.00 76 1020.8
20260903090407 67 195 8.0 13.0 0.00 0.00 0.00 76 1020.8
20260903085909 67 237 8.0 16.0 0.00 0.00 0.00 75 1020.8
20260903084408 67 227 9.0 17.0 0.00 0.00 0.00 75 1020.7
20260903083907 67 193 9.0 17.0 0.00 0.00 0.00 76 1020.5